TimeMDT,TemperatureF,Dew PointF,Humidity,Sea Level PressureIn,VisibilityMPH,Wind Direction,Wind SpeedMPH,Gust SpeedMPH,PrecipitationIn,Events,Conditions,WindDirDegrees,DateUTC
12:14 AM,35.6,28.4,75,30.30,10.0,SSW,9.2,-,N/A,,Clear,200,2013-04-27 06:14:00
12:34 AM,35.6,28.4,75,30.30,10.0,SSW,9.2,-,N/A,,Clear,200,2013-04-27 06:34:00
12:54 AM,35.6,28.4,75,30.29,10.0,SSW,8.1,-,N/A,,Clear,210,2013-04-27 06:54:00
1:14 AM,35.6,26.6,70,30.29,10.0,SSW,6.9,-,N/A,,Clear,210,2013-04-27 07:14:00
1:34 AM,35.6,26.6,70,30.28,10.0,SSW,8.1,-,N/A,,Clear,200,2013-04-27 07:34:00
1:54 AM,35.6,26.6,70,30.27,10.0,SSW,6.9,-,N/A,,Clear,210,2013-04-27 07:54:00
2:14 AM,35.6,26.6,70,30.27,10.0,SW,9.2,-,N/A,,Clear,220,2013-04-27 08:14:00
2:34 AM,35.6,24.8,65,30.26,10.0,SW,8.1,-,N/A,,Clear,220,2013-04-27 08:34:00
2:54 AM,37.4,23.0,56,30.26,10.0,SW,8.1,-,N/A,,Clear,220,2013-04-27 08:54:00
3:14 AM,35.6,24.8,65,30.25,10.0,SSW,8.1,-,N/A,,Clear,200,2013-04-27 09:14:00
3:34 AM,33.8,24.8,70,30.25,10.0,SSW,8.1,-,N/A,,Clear,210,2013-04-27 09:34:00
3:54 AM,37.4,24.8,60,30.25,10.0,SSW,9.2,-,N/A,,Clear,210,2013-04-27 09:54:00
4:14 AM,37.4,24.8,60,30.25,10.0,SSW,8.1,-,N/A,,Clear,210,2013-04-27 10:14:00
4:34 AM,33.8,26.6,75,30.25,10.0,SSW,8.1,-,N/A,,Clear,210,2013-04-27 10:34:00
4:54 AM,37.4,26.6,65,30.24,10.0,SW,12.7,-,N/A,,Clear,220,2013-04-27 10:54:00
5:14 AM,37.4,26.6,65,30.24,10.0,WSW,10.4,-,N/A,,Clear,240,2013-04-27 11:14:00
5:34 AM,37.4,26.6,65,30.24,10.0,WSW,8.1,-,N/A,,Clear,240,2013-04-27 11:34:00
5:54 AM,35.6,26.6,70,30.24,10.0,WSW,9.2,-,N/A,,Clear,240,2013-04-27 11:54:00
6:14 AM,35.6,26.6,70,30.24,10.0,WSW,8.1,-,N/A,,Clear,250,2013-04-27 12:14:00
6:33 AM,35.6,26.6,70,30.25,10.0,WSW,9.2,-,N/A,,Clear,250,2013-04-27 12:33:00
6:54 AM,37.4,28.4,70,30.25,10.0,WSW,8.1,-,N/A,,Clear,240,2013-04-27 12:54:00
7:14 AM,42.8,28.4,57,30.25,10.0,WSW,6.9,-,N/A,,Clear,250,2013-04-27 13:14:00
7:34 AM,44.6,28.4,53,30.25,10.0,WSW,5.8,-,N/A,,Clear,250,2013-04-27 13:34:00
7:54 AM,48.2,24.8,40,30.25,10.0,West,6.9,-,N/A,,Clear,270,2013-04-27 13:54:00
8:14 AM,51.8,23.0,33,30.25,10.0,WNW,9.2,-,N/A,,Clear,290,2013-04-27 14:14:00
8:34 AM,53.6,21.2,28,30.25,10.0,WNW,9.2,-,N/A,,Clear,290,2013-04-27 14:34:00
8:53 AM,53.6,17.6,24,30.25,10.0,NW,11.5,-,N/A,,Clear,310,2013-04-27 14:53:00
9:14 AM,55.4,17.6,23,30.25,10.0,NNW,12.7,17.3,N/A,,Clear,330,2013-04-27 15:14:00
9:34 AM,55.4,14.0,20,30.25,10.0,NW,12.7,-,N/A,,Clear,320,2013-04-27 15:34:00
9:54 AM,57.2,14.0,18,30.25,10.0,NW,11.5,20.7,N/A,,Clear,320,2013-04-27 15:54:00
10:14 AM,59.0,12.2,16,30.25,10.0,NW,9.2,-,N/A,,Clear,320,2013-04-27 16:14:00
10:33 AM,59.0,12.2,16,30.25,10.0,NW,10.4,20.7,N/A,,Clear,320,2013-04-27 16:33:00
10:54 AM,59.0,12.2,16,30.25,10.0,North,11.5,17.3,N/A,,Clear,350,2013-04-27 16:54:00
11:13 AM,59.0,10.4,15,30.26,10.0,West,6.9,11.5,N/A,,Clear,280,2013-04-27 17:13:00
11:34 AM,59.0,10.4,15,30.25,10.0,NNW,6.9,18.4,N/A,,Clear,330,2013-04-27 17:34:00
11:54 AM,60.8,14.0,16,30.25,10.0,West,6.9,-,N/A,,Clear,280,2013-04-27 17:54:00
12:14 PM,60.8,14.0,16,30.24,10.0,NNW,9.2,16.1,N/A,,Clear,330,2013-04-27 18:14:00
12:34 PM,60.8,12.2,15,30.23,10.0,NW,8.1,-,N/A,,Clear,320,2013-04-27 18:34:00
12:54 PM,62.6,14.0,15,30.23,10.0,North,10.4,-,N/A,,Clear,360,2013-04-27 18:54:00
1:13 PM,60.8,12.2,15,30.22,10.0,NNE,9.2,-,N/A,,Clear,20,2013-04-27 19:13:00
1:33 PM,62.6,12.2,14,30.22,10.0,NNE,4.6,-,N/A,,Clear,20,2013-04-27 19:33:00
1:54 PM,62.6,12.2,14,30.21,10.0,NNW,10.4,16.1,N/A,,Clear,330,2013-04-27 19:54:00
2:14 PM,62.6,14.0,15,30.20,10.0,North,8.1,-,N/A,,Clear,10,2013-04-27 20:14:00
2:34 PM,62.6,14.0,15,30.20,10.0,SW,3.5,-,N/A,,Clear,230,2013-04-27 20:34:00
2:54 PM,62.6,14.0,15,30.19,10.0,NW,8.1,-,N/A,,Clear,310,2013-04-27 20:54:00
3:14 PM,62.6,14.0,15,30.18,10.0,NW,15.0,18.4,N/A,,Clear,320,2013-04-27 21:14:00
3:33 PM,62.6,14.0,15,30.17,10.0,East,4.6,-,N/A,,Clear,80,2013-04-27 21:33:00
3:54 PM,64.4,14.0,14,30.17,10.0,North,16.1,19.6,N/A,,Clear,350,2013-04-27 21:54:00
4:14 PM,64.4,15.8,15,30.16,10.0,North,9.2,-,N/A,,Clear,10,2013-04-27 22:14:00
4:34 PM,64.4,14.0,14,30.15,10.0,North,8.1,-,N/A,,Clear,350,2013-04-27 22:34:00
4:54 PM,64.4,14.0,14,30.15,10.0,NW,10.4,-,N/A,,Clear,310,2013-04-27 22:54:00
5:14 PM,64.4,14.0,14,30.15,10.0,NNW,8.1,-,N/A,,Clear,330,2013-04-27 23:14:00
5:34 PM,62.6,12.2,14,30.15,10.0,North,5.8,-,N/A,,Clear,360,2013-04-27 23:34:00
5:54 PM,62.6,14.0,15,30.15,10.0,NE,4.6,-,N/A,,Clear,50,2013-04-27 23:54:00
6:14 PM,60.8,14.0,16,30.15,10.0,NNE,6.9,-,N/A,,Clear,20,2013-04-28 00:14:00
6:34 PM,60.8,15.8,17,30.15,10.0,NNE,4.6,-,N/A,,Clear,20,2013-04-28 00:34:00
6:54 PM,59.0,19.4,22,30.14,10.0,North,4.6,-,N/A,,Clear,10,2013-04-28 00:54:00
7:13 PM,59.0,19.4,22,30.14,10.0,NNE,3.5,-,N/A,,Clear,30,2013-04-28 01:13:00
7:34 PM,53.6,21.2,28,30.15,10.0,East,4.6,-,N/A,,Clear,100,2013-04-28 01:34:00
7:54 PM,51.8,21.2,30,30.15,10.0,East,3.5,-,N/A,,Clear,90,2013-04-28 01:54:00
8:14 PM,51.8,19.4,28,30.15,10.0,East,3.5,-,N/A,,Clear,100,2013-04-28 02:14:00
8:34 PM,51.8,19.4,28,30.16,10.0,ESE,3.5,-,N/A,,Clear,120,2013-04-28 02:34:00
8:54 PM,50.0,19.4,30,30.16,10.0,SE,3.5,-,N/A,,Clear,140,2013-04-28 02:54:00
9:14 PM,46.4,19.4,34,30.17,10.0,Calm,Calm,-,N/A,,Clear,0,2013-04-28 03:14:00
9:34 PM,46.4,19.4,34,30.18,10.0,SSE,4.6,-,N/A,,Clear,150,2013-04-28 03:34:00
9:54 PM,44.6,21.2,39,30.18,10.0,SSW,5.8,-,N/A,,Clear,200,2013-04-28 03:54:00
10:14 PM,41.0,23.0,49,30.18,10.0,South,8.1,-,N/A,,Clear,190,2013-04-28 04:14:00
10:34 PM,42.8,23.0,46,30.17,10.0,SSW,6.9,-,N/A,,Clear,200,2013-04-28 04:34:00
10:54 PM,39.2,23.0,52,30.17,10.0,SSW,6.9,-,N/A,,Clear,200,2013-04-28 04:54:00
11:14 PM,41.0,21.2,45,30.17,10.0,SSW,5.8,-,N/A,,Clear,210,2013-04-28 05:14:00
11:34 PM,42.8,21.2,42,30.16,10.0,SSW,8.1,-,N/A,,Clear,210,2013-04-28 05:34:00
11:54 PM,41.0,21.2,45,30.16,10.0,SW,8.1,-,N/A,,Clear,220,2013-04-28 05:54:00